Regional Weather Roundup
Issued by NWS Columbia, SC

Home | Current Version | Previous Version | Text Only | Print | Product List | Glossary On
Versions: 1 2 3 4 5 6 7 8 9 10 11 12 13 14 15 16 17 18 19 20 21 22 23 24 25 26 27 28 29 30 31 32 33 34 35 36 37 38 39 40 41 42 43 44 45 46 47 48 49 50
000
ASUS42 KCAE 260710
RWRCAE
REGIONAL WEATHER ROUNDUP
NATIONAL WEATHER SERVICE COLUMBIA SC
300 AM EDT FRI AUG 26 2016

NOTE: "FAIR" INDICATES FEW OR NO CLOUDS BELOW 12,000 FEET WITH NO
SIGNIFICANT WEATHER AND/OR OBSTRUCTIONS TO VISIBILITY.

NOT ALL STATIONS ARE QUALITY CONTROLLED BY THE NATIONAL
WEATHER SERVICE. USE DATA WITH CAUTION...ESPECIALLY
DEWPOINT OBSERVATIONS.

SCZ001>056-GAZ040-063>065-077-260800-
...UPSTATE SOUTH CAROLINA...

CITY           SKY/WX    TMP DP  RH WIND       PRES   REMARKS
ANDERSON       FAIR      74  72  93 CALM      30.12S
CLEMSON        FAIR      78  72  81 CALM      30.14S
GREENVILLE     FAIR      76  72  87 CALM      30.14R
GREENWOOD      FAIR      76  66  71 SW5       30.13R
GREER          FAIR      75  72  90 CALM      30.12R
ROCK HILL      FAIR      74  68  81 SW6       30.11S


...CENTRAL SOUTH CAROLINA...

CITY           SKY/WX    TMP DP  RH WIND       PRES   REMARKS
COLUMBIA APT   FAIR      77  68  73 CALM      30.09S
COLUMBIA OWENS FAIR      76  69  79 CALM      30.10F
MCENTIRE ANGB  FAIR      70  68  93 CALM      30.10S
ORANGEBURG     FAIR      71  70  96 CALM      30.10F
SUMTER SHAW    FAIR      75  70  85 SW3       30.08S
NEWBERRY       FAIR      73  70  88 SW3       30.14


...EASTERN AND COASTAL SOUTH CAROLINA...

CITY           SKY/WX    TMP DP  RH WIND       PRES   REMARKS
MYRTLE BEACH   FAIR      73  64  73 CALM      30.11S
N MYRTLE BCH   FAIR      72  70  93 CALM      30.09S
FLORENCE       FAIR      75  71  87 S3        30.10S
CHARLESTON APT FAIR      75  70  84 CALM      30.08F
BEAUFORT       FAIR      73  70  90 N3        30.08F


...EASTERN GEORGIA...

CITY           SKY/WX    TMP DP  RH WIND       PRES   REMARKS
AUGUSTA BUSH F FAIR      71  68  90 CALM      30.09S
AUGUSTA DANIEL FAIR      78  67  68 SW5       30.11S
THOMSON        FAIR      77  72  83 MISG      30.16R
WASHINGTON     FAIR      75  72  88 S3        30.12R
CLAXTON        FAIR      68  68 100 CALM      30.09F
STATESBORO     FAIR      71  70  97 CALM      30.09F
SAVANNAH       FAIR      73  70  90 CALM      30.08F


...SOUTHERN NORTH CAROLINA...

CITY           SKY/WX    TMP DP  RH WIND       PRES   REMARKS
CHARLOTTE      FAIR      78  67  68 SW3       30.11S
MONROE         FAIR      73  67  81 SW5       30.10S
WADESBORO      FAIR      75  68  79 CALM      30.09S
ROCKINGHAM     FAIR      74  72  92 CALM      30.09F
RUTHERFORDTON    N/A     73  73 100 CALM      30.14R
ASHEVILLE      FAIR      69  66  90 SW3       30.21S

$$



USA.gov is the U.S. government's official web portal to all federal, state and local government web resources and services.